Regional Weather Roundup
Issued by NWS

Home | Current Version | Previous Version | Text Only | Print | Product List | Glossary On
Versions: 1 2 3 4 5 6 7 8 9 10 11 12 13 14 15 16 17 18 19 20 21 22 23 24 25 26 27 28 29 30 31 32 33 34 35 36 37 38 39 40 41 42 43 44 45 46 47 48 49 50
000
ASHW40 PHFO 281243
RWRHI

WEATHER ROUNDUP FOR HAWAII
NATIONAL WEATHER SERVICE HONOLULU HI
200 AM HST WED JUN 28 2017

THIS IS AN AUTOMATED REPORT THAT HAS NOT BEEN QUALITY CONTROLLED.

NOTE..."FAIR" INDICATES FEW OR NO CLOUDS BELOW 12,000 FEET WITH NO
SIGNIFICANT WEATHER AND/OR OBSTRUCTIONS TO VISIBILITY.

* - THESE SITES REPORT LIMITED FIELDS

HIZ001>004-281300-
KAUAI-NIIHAU-

CITY           SKY/WX    TMP DP  RH WIND       PRES   REMARKS
LIHUE APT      LGT RAIN  76  69  79 NE9       30.11F
PORT ALLEN*    NOT AVBL
POIPU*           N/A     79 N/A N/A NE7G15      N/A
PRINCEVILLE*   NOT AVBL
KOKOLE POINT*  NOT AVBL
MOLOAA DAIRY*    N/A     77  70  78 E3G10       N/A
WAIMEA HTS*      N/A     73  63  68 N2          N/A
PUU OPAE*      NOT AVBL
PUU LUA*       NOT AVBL
MAKAHA RIDGE*    N/A     68  59  73 CALM        N/A
$$

HIZ005>011-281300-
OAHU-

CITY           SKY/WX    TMP DP  RH WIND       PRES   REMARKS
HONOLULU       PTCLDY    77  64  64 NE14      30.06F
KALAELOA       PTCLDY    75  64  68 E3        30.07F
KANEOHE MCB    NOT AVBL
WHEELER FIELD  MOCLDY    75  66  73 N5        30.06F
BELLOWS*         N/A    N/A N/A N/A NE17        N/A
KAHUKU*          N/A    N/A N/A N/A NE9G17      N/A
WHEELER*         N/A    N/A N/A N/A NE2         N/A
WAIANAE HARBOR   N/A    N/A N/A N/A N3          N/A
DILLINGHAM*      N/A     70  63  78 CALM        N/A
KAHUKU TRN*      N/A     84  79  84 W9G23       N/A  HX  96
KAWAILOA*        N/A     72  66  83 E6G15       N/A
KII*             N/A     79  72  78 E18G25      N/A
MAKUA RANGE*     N/A     73  63  68 W3          N/A
OAHU FOREST NW   N/A     70  66  88 E14G35      N/A
SCHOFIELD BRK*   N/A     72  64  78 N1          N/A
SCHOFIELD S*   NOT AVBL
WAIANAE VLY*     N/A     72  64  78 SE3G12      N/A
KUAOKALA*        N/A     73  66  78 NE13G20     N/A
HONOULIUULI*   NOT AVBL
MOKUOLOE IS*   NOT AVBL
PALEHUA*         N/A     66  63  88 NE8G22      N/A
WAIAWA PHB*    NOT AVBL
$$

HIZ012>013-281300-
MOLOKAI-

CITY           SKY/WX    TMP DP  RH WIND       PRES   REMARKS
MOLOKAI AIRPT  CLEAR     77  65  66 NE8       30.06F
KALAUPAPA      NOT AVBL
MAKAPULAPAI*     N/A     77  66  69 E22G29      N/A
MOLOKAI 1*       N/A     64  57  77 SE3G20      N/A
PUU ALII*        N/A     60  59  95 NE3G13      N/A
$$

HIZ016-281300-
KAHOOLAWE-

CITY           SKY/WX    TMP DP  RH WIND       PRES   REMARKS
KAHOOLAWE*     NOT AVBL
HAKIOAWA*        N/A     73  62  68 MISG      30.46F
HONOKANAIA*      N/A     78  66  66 NE14G23     N/A
KANELOA*         N/A     73  64  73 E18G33    30.12F
KEALIALALO*    NOT AVBL
LUA MAKIKA*    NOT AVBL
$$

HIZ014>015-281300-
LANAI-

CITY           SKY/WX    TMP DP  RH WIND       PRES   REMARKS
LANAI CITY     FAIR      66  62  87 CALM      30.10F
LANAI 1*         N/A     72  61  68 NE18        N/A
$$

HIZ017>028-281300-
MAUI-

CITY           SKY/WX    TMP DP  RH WIND       PRES   REMARKS
KAHULUI        CLEAR     77  60  55 NE13      30.06F
KAPALUA-W MAUI NOT AVBL
HANA AIRPORT   CLOUDY    73  66  78 SE2       30.11S
HANA*            N/A     73 N/A N/A S3          N/A
HALEAKALA SUMM   N/A     43  16  33 NE25        N/A
MAALAEA BAY*     N/A     79 N/A N/A VRB22G37    N/A
HALEAKALA*     NOT AVBL
KAUPO GAP*     NOT AVBL
KULA 1*          N/A    N/A N/A N/A E3          N/A
$$

HIZ023>026-281300-
BIG ISLAND OF HAWAII COAST AND LOWER SLOPES-

CITY           SKY/WX    TMP DP  RH WIND       PRES   REMARKS
KAILUA KONA    CLOUDY    86  68  54 SE9       29.98F
HILO           CLOUDY    72  66  81 W6        30.07F
HONOKAA*         N/A     70 N/A N/A VRB1        N/A
KAWAIHAE MWT*    N/A     77 N/A N/A NE9         N/A
KAWAIHAE*        N/A     79 N/A N/A VRB3      29.99S
SOUTH POINT*     N/A     72 N/A N/A N20G30      N/A
UPOLU AIRPORT* NOT AVBL
KAMUELA*         N/A     64  61  88 NE25G39   30.10S
HAKALAU*         N/A    N/A N/A N/A SW3G9       N/A
KALOKO-HONOKO*   N/A     75  66  73 E3        29.98
PALI 2*          N/A     63  54  72 SW18G30     N/A
KEALAKOMO*       N/A     77  63  61 N20G29      N/A
KAUPULEHU*       N/A     68  63  83 SE8         N/A
KAPAPALA*        N/A     58  58  99 NW7         N/A
LOWER KAHUKU*    N/A     57  52  82 N1G7        N/A
PUHE CS*         N/A     77  59  53 NE3G10      N/A
PUHO CS*         N/A     76  65  67 E2          N/A
PTA KEAMUKU*   NOT AVBL
WAIKOLOA*        N/A    N/A N/A N/A E18G32      N/A
$$

HIZ027>028-281300-
BIG ISLAND OF HAWAII INTERIOR AND SUMMMITS-

CITY           SKY/WX    TMP DP  RH WIND       PRES   REMARKS
BRADSHAW FIELD CLOUDY    50  35  57 SE7       30.36F
MK VISITOR CEN   N/A     48   0  13 N3          N/A
MAUNA KEA*       N/A     37 -13  11 NE10        N/A
MAUNA LOA*       N/A     45 -11   9 MISG        N/A
MAUNA LOA 1*   NOT AVBL
PTA KIPUKA*      N/A    N/A N/A N/A E14G23      N/A
PTA RANGE 17*    N/A    N/A N/A N/A E12G20      N/A
PTA WEST*        N/A     75  68  78 W5G12       N/A
NENE CABIN*      N/A     50  12  22 N5          N/A
AHUMOA*          N/A    N/A N/A N/A E7          N/A
PTA PORTABLE*  NOT AVBL
PUU MALI*        N/A     61 N/A N/A E15G23      N/A
$$

HIC003-281300-
NORTHWEST ISLANDS-

CITY           SKY/WX    TMP DP  RH WIND       PRES   REMARKS
MIDWAY ISLAND  CLEAR     75  70  83 E9        30.16F
MIDWAY NOS*      N/A     75 N/A N/A MISG      30.14F
FRENCH FRIGATE NOT AVBL
$$

PHZ110>124-180-281300-
BUOY REPORTS

STATION/POSITION TIME  TEMP    WIND        PRES    WAVE   SWELL
                       AIR SEA DIR/SP/G            HT/PER HT/DIR
                 (UTC) (F)     (DEG/KT/KT) (MB)    (FT/S) (FT/D)
BUOY 51001       1220   79 81   80/ 12/ 17 1020.1
BUOY 51101       1150   79 81   70/ 12/ 14 1020.9F   5/ 7   5/100
BUOY 51100       NOT AVBL
BUOY 51002       1220   79 79   70/ 19/ 23 1015.1
BUOY 51003       1150   80 80   50/ 14/ 17 1016.6F   6/ 8   5/100
BUOY 51004       1150      78   40/ 17/ 21 1015.4F   7/ 8   3/ 70
BARBERS PT BUOY  NOT AVBL
WAIMEA BAY BUOY  1202      78                N/A     5/11   2/ 30
KAILUA BAY BUOY  1204      80                N/A     7/ 7   2/ 60
LANAI BUOY       NOT AVBL
BARBERS PT 2     NOT AVBL
PAUWELA MAUI     1209      78                N/A     6/10   2/ 50
HILO             1227      79                N/A     7/ 7   2/ 50
KANEOHE BAY BUOY 1225      79                N/A     6/11   3/ 60
HANALEI KAUAI    1222      80                N/A     5/10   2/ 40
KAHULUI HARBOR   1206   79 80  340/  7/ 12 1018.1
HONOLULU HARBOR  1206   78 80   50/  3/  8 1018.4
KILO NALU        NOT AVBL
HILO HARBOR      1206   74 78  280/  3/  4 1018.1
MOKUOLOE         1136   79 82   70/ 11/ 12 1018.7F
NAWILIWILI       1206   76 82   40/  4/  8 1019.1
WHOTS BUOY       NOT AVBL
BUOY 51028       NOT AVBL
$$

......................KEY........................................
  SKY/WX - SKY CONDITIONS/PRESENT WEATHER
  TMP    - TEMPERATURE IN FAHRENHEIT
  DWPT   - DEWPOINT IN FAHRENHEIT
  RH     - RELATIVE HUMIDITY IN PERCENT
  WIND   - DIRECTION AND SPEED /MPH FOR ISLANDS...KTS FOR BUOYS/
  PRES   - MEAN SEA LEVEL PRESSURE IN INCHES OF HG
  VSB    - VISIBILITY IN MILES
  HX     - HEAT INDEX
  WCI    - WIND CHILL INDEX
  VRB    - VARIABLE WIND DIRECTION
  N/A    - NOT AVAILABLE




USA.gov is the U.S. government's official web portal to all federal, state and local government web resources and services.